Regional Weather Roundup
Issued by NWS

Home | Current Version | Previous Version | Text Only | Print | Product List | Glossary On
Versions: 1 2 3 4 5 6 7 8 9 10 11 12 13 14 15 16 17 18 19 20 21 22 23 24 25 26 27 28 29 30 31 32 33 34 35 36 37 38 39 40 41 42 43 44 45 46 47 48 49 50
000
ASUS45 KSLC 020810
RWRUT

UTAH REGIONAL WEATHER ROUNDUP
NATIONAL WEATHER SERVICE SALT LAKE CITY UT
200 AM MDT THU JUL 02 2015

UTZ001>011-023>025-020900-

NORTHERN UTAH

CITY           SKY/WX    TMP DP  RH WIND       PRES   REMARKS
HILL AFB       MOCLDY    75  50  40 E13       30.07S
LOGAN          CLEAR     67  49  52 CALM      30.05F
OGDEN          MOCLDY    74  50  42 S8        30.04S
PROVO AIRPORT  CLOUDY    72  54  53 CALM      30.06S
SALT LAKE CITY CLOUDY    79  53  40 S6        30.02R
VERNAL         CLOUDY    73  44  35 N6        30.08F
WENDOVER       MOCLDY    84  45  24 W7        30.05S
WEST JORDAN    CLEAR     79  48  34 CALM      30.06F

$$

UTZ012>022-026-027-020900-

SOUTHERN/CENTRAL UTAH

CITY           SKY/WX    TMP DP  RH WIND       PRES   REMARKS
BRYCE CANYON   CLOUDY    59  49  69 SW3       30.34F
CEDAR CITY     CLOUDY    79  44  28 CALM      30.18S
MILFORD        CLOUDY    75  49  39 W9        30.08F
MOAB/CYNLANDS  CLEAR     78  46  32 CALM      29.97F
PRICE          CLOUDY    77  42  28 NW7       30.14S
ST GEORGE      CLOUDY    81  64  57 NE6       30.01S
KANAB          CLOUDY    75  57  53 W13       30.13F

$$

REGIONAL REPORTS     COLORADO/ARIZONA

CITY           SKY/WX    TMP DP  RH WIND       PRES   REMARKS
CRAIG, CO      CLEAR     57  47  69 SE3       30.17S
GRAND JUNCTION MOCLDY    73  50  44 VRB5      30.02R
RIFLE          MOCLDY    68  49  50 E6        30.12R
MONTROSE       CLOUDY    75  49  39 SE7       30.13S
CORTEZ         PTCLDY    77  47  34 SE13G18   30.15S
PAGE, AZ       CLOUDY    85  47  26 W6        30.04R
GRAND CANYON   CLOUDY    63  58  83 E3        30.29R
KINGMAN        CLOUDY    77  57  50 SE3       30.05F
FLAGSTAFF      CLOUDY    60  59  96 CALM      30.34F

$$

REGIONAL REPORTS    NEVADA/IDAHO/WYOMING

CITY           SKY/WX    TMP DP  RH WIND       PRES   REMARKS
LAS VEGAS, NV  CLOUDY    92  55  28 W10       29.84S HX  90
ELY            CLOUDY    67  54  63 W6        30.32S
ELKO           PTCLDY    73  51  46 SW3       30.16F
POCATELLO, ID  CLEAR     74  44  34 SW12      30.03S
BURLEY         CLEAR     69  48  47 SW6       30.01S
EVANSTON, WY   MOCLDY    68  41  37 CALM      30.28S
ROCK SPRINGS   PTCLDY    64  50  60 NE9       30.23S

$$



USA.gov is the U.S. government's official web portal to all federal, state and local government web resources and services.